EHI
1 2 4 5 5 4 3 2 2 3 3 2 1 1 1 1 1 3 5 5 4 2 2 2 3 4 4 4 5 6 5 4 5 5 4 4 5 6 3 1 0 0 0
2 3 4 4 4 3 2 1 1 1 1 1 0 0 0 0 0 2 4 4 3 2 2 3 4 3 3 3 3 4 4 3 3 4 3 2 4 4 3 1 0 0 0
3 3 4 4 4 3 2 1 0 0 0 0 0 0 0 0 0 1 2 2 2 1 2 4 4 3 3 2 2 3 3 1 1 3 2 1 1 1 1 2 1 0 0
3 3 3 4 3 3 3 2 1 0 0 0 0 0 0 0 0 0 1 2 1 0 1 2 3 4 3 2 1 2 2 1 1 2 1 0 0 0 1 2 2 1 1
2 3 3 3 3 3 4 4 3 1 0 0 0 0 0 0 0 0 1 2 1 0 0 1 2 3 2 1 1 2 2 1 1 1 1 0 0 1 2 2 3 2 1
1 2 4 4 4 4 5 6 5 2 1 0 0 1 1 2 1 1 1 1 1 1 1 1 2 1 1 0 1 2 2 1 1 0 0 0 1 2 3 2 1 1 1
2 3 4 6 6 5 5 6 5 3 2 2 2 3 3 3 3 2 1 0 1 1 2 3 3 1 1 0 0 1 2 2 1 0 0 0 2 4 4 3 1 1 1
2 3 4 7 7 6 5 5 4 3 2 3 5 5 5 5 5 3 1 0 0 1 3 4 3 3 2 1 1 1 2 3 2 1 0 1 4 7 7 5 4 3 2
2 2 3 6 7 7 6 6 4 3 3 5 6 7 8 10 9 7 4 2 1 1 2 3 3 3 3 3 3 3 4 4 2 0 0 2 7 9 8 6 5 4 3
1 0 1 3 5 5 5 5 6 6 5 7 8 9 11 12 11 9 7 6 4 3 4 4 5 5 5 5 6 7 8 6 2 0 0 3 7 8 6 4 4 3 3
0 0 0 1 1 2 2 3 6 7 7 8 9 11 12 10 7 6 7 8 8 7 8 9 9 9 8 8 9 11 11 8 3 1 1 4 6 5 4 3 3 3 3
0 0 0 0 0 0 0 2 3 5 8 9 8 10 10 7 4 2 4 8 9 9 10 11 11 10 8 7 8 10 9 7 4 3 3 6 7 6 4 3 3 3 3
0 0 0 0 0 0 1 2 2 3 6 6 7 8 8 7 4 2 3 5 7 8 8 8 7 5 4 3 4 5 5 4 3 2 4 7 8 7 5 4 3 3 3
0 0 0 0 0 1 4 5 3 3 4 5 6 8 9 8 6 5 4 4 5 5 5 4 3 1 0 0 1 1 1 1 1 1 4 7 9 8 7 5 4 3 3
0 0 0 0 1 3 7 8 6 4 5 6 7 8 9 10 9 8 9 9 7 5 3 1 1 1 0 0 0 0 0 1 1 1 4 7 10 11 10 8 6 5 5
0 1 2 2 2 3 7 8 7 6 8 9 9 10 12 14 14 12 13 12 9 6 4 2 2 2 1 0 0 0 1 2 2 2 3 6 10 12 12 10 8 8 8
2 4 4 3 3 4 5 6 6 7 10 11 12 13 14 16 17 16 13 10 9 9 9 8 6 3 1 1 1 1 1 2 2 2 4 5 8 9 11 10 8 8 8
6 6 4 4 5 6 6 6 7 10 13 14 14 16 16 16 17 15 11 10 10 11 12 11 8 3 1 2 3 2 2 2 1 3 6 7 7 7 9 9 8 6 6
8 7 5 6 9 11 10 9 10 13 15 15 14 15 16 15 13 11 11 12 11 10 10 10 8 6 5 4 3 3 3 3 2 3 6 8 8 8 8 8 7 6 5
12 12 9 9 13 15 14 12 12 13 14 15 15 14 13 11 9 10 12 15 13 10 9 9 10 11 10 6 3 4 6 6 4 4 5 6 6 8 9 9 9 8 7
22 23 20 15 16 18 16 14 13 14 15 16 17 15 12 10 10 10 12 16 16 14 11 10 11 14 13 9 6 6 7 5 4 6 7 6 6 8 11 12 12 11 9
31 32 28 21 20 21 20 18 17 18 17 16 17 16 13 11 11 9 10 13 16 16 14 11 12 12 11 9 8 8 6 3 3 5 8 8 7 8 10 12 15 16 14
34 34 31 29 27 25 22 20 18 17 16 15 18 19 15 12 10 9 9 10 12 13 13 13 12 10 6 6 8 7 5 2 1 3 5 8 10 10 8 9 14 18 19
34 36 39 39 36 30 23 18 16 15 15 17 21 22 19 14 11 10 10 9 9 9 11 13 13 10 6 5 6 6 6 4 2 1 2 7 12 12 9 7 11 16 18
32 38 45 48 45 37 26 19 15 15 17 19 22 24 22 17 12 11 12 12 11 9 11 15 16 14 9 7 5 5 6 5 3 0 1 5 10 11 10 9 10 13 14
30 36 45 52 51 41 30 21 18 17 18 19 21 23 22 18 14 12 14 16 14 10 11 18 21 17 11 8 6 6 6 5 2 0 0 2 5 8 11 12 12 13 13
Wind_Speed
9 10 11 10 9 8 9 9 9 9 8 8 8 9 9 10 10 10 10 10 11 10 11 11 11 13 14 15 15 15 15 15 15 15 14 13 11 10 10 10 11 9 12
10 10 11 9 9 8 8 9 9 8 8 8 8 9 10 10 10 10 10 10 10 11 11 11 11 13 14 15 15 14 14 14 14 14 14 12 11 10 9 9 8 8 12
10 9 10 9 8 8 8 8 8 8 8 8 8 9 9 9 9 9 9 9 10 11 11 11 12 14 15 15 14 13 13 13 13 13 12 8 8 9 10 11 11 12 11
9 8 9 9 8 8 8 8 8 8 7 8 8 8 8 8 9 9 10 10 10 11 11 12 13 15 14 13 13 12 12 11 11 11 7 7 7 10 10 10 11 11 10
9 9 8 8 8 8 8 8 8 7 7 7 7 7 8 9 9 10 10 10 10 11 12 12 13 13 13 12 11 10 10 9 9 8 6 6 7 10 10 10 10 10 10
9 9 8 8 8 8 8 8 7 7 7 7 7 7 8 8 9 9 9 10 11 11 12 12 12 12 12 11 10 9 8 8 7 5 5 7 7 9 10 9 10 10 9
9 9 8 9 9 9 8 7 7 7 6 7 6 7 7 8 8 8 9 10 11 11 11 12 12 11 11 10 8 7 6 6 4 5 6 7 7 9 10 9 9 9 9
9 9 8 9 10 9 8 7 7 6 6 6 6 6 7 7 8 9 9 10 10 11 11 11 11 11 10 9 8 6 5 4 4 7 8 7 9 9 9 9 8 8 8
9 8 8 8 8 8 8 8 7 6 5 5 5 6 6 7 8 9 10 10 10 11 11 11 10 10 10 9 8 6 5 4 1 3 8 7 10 9 9 9 8 8 8
8 7 7 7 7 6 7 7 7 6 5 4 4 5 6 7 8 9 10 10 10 11 11 10 10 10 9 9 7 6 4 2 2 4 5 7 11 9 9 9 8 8 7
7 6 6 6 5 4 6 7 6 6 5 4 4 5 6 4 5 7 9 11 11 11 11 10 10 9 8 8 7 5 2 1 3 5 5 9 11 10 9 8 7 7 7
5 5 6 6 4 5 5 4 3 3 3 2 1 2 2 1 2 5 9 11 11 11 11 10 9 8 6 4 5 4 1 2 3 5 6 10 9 8 8 7 7 7 7
5 5 7 6 5 6 4 3 2 2 2 2 2 2 1 1 2 3 3 5 6 8 6 8 6 4 3 3 3 3 2 2 3 4 7 10 9 8 7 7 7 7 7
5 6 6 6 6 5 5 3 2 2 2 2 2 2 1 1 2 2 2 2 3 3 3 4 3 4 3 2 3 2 3 3 3 4 6 10 8 8 7 7 7 7 7
6 6 7 6 6 5 3 2 3 3 3 3 3 3 2 2 2 2 2 2 2 3 3 3 3 3 3 3 2 3 3 3 3 4 4 8 8 7 7 7 7 8 8
7 7 6 7 7 4 3 2 2 2 2 3 3 4 3 3 3 2 2 2 2 3 3 4 4 3 3 2 2 2 2 2 3 4 5 5 6 6 7 7 7 7 7
7 7 6 6 7 4 3 2 2 2 3 3 3 4 4 4 3 2 2 3 2 2 4 3 4 3 2 2 2 2 2 2 3 3 4 3 4 5 6 7 7 7 7
7 6 4 5 7 5 3 2 2 3 4 3 3 4 5 4 4 3 3 3 2 2 3 3 3 2 2 2 2 2 2 2 3 2 2 3 3 3 5 7 7 7 6
7 6 5 5 6 4 3 2 2 2 3 2 3 4 4 4 4 3 3 2 2 2 2 3 3 2 2 2 2 2 2 2 2 2 2 3 3 3 4 5 7 7 6
8 6 5 4 4 3 3 2 1 2 2 2 3 4 4 3 4 3 2 2 2 2 2 2 2 2 2 2 2 2 2 1 1 1 1 2 2 3 4 4 4 4 5
8 6 5 4 4 2 1 1 2 2 1 2 3 4 4 3 3 3 3 2 2 3 2 2 2 2 1 1 1 2 1 1 1 1 1 1 1 1 3 4 3 2 3
9 7 6 4 4 3 2 1 1 1 2 3 3 3 3 3 2 3 3 2 2 2 2 2 2 1 1 1 1 1 1 0 1 1 1 1 1 1 2 3 3 3 2
10 8 6 5 4 3 3 2 2 2 2 2 2 2 2 2 2 2 3 2 2 1 2 1 1 0 0 1 1 1 1 1 1 1 1 2 2 1 1 2 3 3 3
10 9 7 6 5 4 3 2 2 2 2 2 2 2 2 2 2 2 2 1 1 1 1 1 1 0 1 1 1 1 1 2 2 1 1 1 1 1 1 2 2 3 3
10 9 8 7 5 4 3 2 2 1 2 2 2 3 2 2 2 2 2 1 1 1 1 0 1 0 0 1 0 0 0 1 1 2 1 1 1 1 1 2 2 3 3
9 9 9 8 6 5 4 3 2 1 2 2 2 2 2 2 2 2 2 2 1 1 1 1 1 0 1 1 1 1 1 1 1 1 2 1 1 0 1 1 2 3 3
Wind_Direction
84 90 88 83 79 75 76 74 73 74 74 74 80 89 97 101 104 104 105 107 112 116 118 118 116 120 124 124 124 123 124 125 124 125 124 121 120 119 123 126 122 114 116
90 94 90 83 79 78 77 76 78 77 76 75 79 90 97 100 105 108 109 111 114 116 120 120 122 128 125 123 123 123 127 129 131 131 131 128 125 122 121 121 120 120 123
88 96 94 81 80 79 83 82 80 78 78 77 82 89 94 99 103 108 112 115 116 117 117 120 122 129 128 127 128 131 134 136 141 144 146 135 128 126 122 123 123 124 124
89 89 91 90 85 86 88 88 84 81 81 80 85 90 94 102 106 108 113 117 118 119 119 121 118 123 127 131 134 138 140 146 157 163 158 137 135 130 128 126 126 126 126
92 95 95 95 95 96 95 91 88 86 87 85 89 91 98 104 109 110 113 115 116 119 119 122 123 124 129 133 139 144 149 160 173 182 137 131 123 132 132 131 129 129 131
100 98 104 105 106 107 102 96 95 92 91 93 95 94 100 106 111 116 118 118 118 118 120 122 125 127 131 136 143 150 159 171 182 168 131 124 123 136 136 138 136 135 137
99 103 108 115 118 115 108 103 100 99 98 100 100 101 109 111 113 121 123 123 123 123 124 124 125 128 132 140 146 154 169 188 196 130 116 116 127 140 142 142 142 141 142
97 102 112 120 127 126 123 117 109 106 108 110 110 112 119 120 122 124 127 128 127 125 125 127 129 134 139 145 154 163 180 210 167 133 123 123 137 143 145 146 147 146 146
88 101 111 123 131 135 131 125 119 118 122 123 123 127 129 135 137 136 136 136 134 131 130 132 134 137 144 149 160 170 189 215 225 131 124 129 141 146 148 151 153 152 153
77 85 92 100 118 137 135 138 138 136 139 142 145 150 154 156 151 147 145 144 143 141 140 141 140 144 150 156 166 174 187 220 177 125 117 133 141 146 150 152 152 155 158
69 70 75 81 95 112 111 121 142 148 149 160 171 178 177 173 155 151 145 151 150 150 149 149 149 150 154 163 171 181 194 214 131 107 107 136 141 145 150 154 157 161 166
77 76 72 62 58 74 78 104 122 120 125 130 105 149 179 145 125 130 149 157 155 157 157 158 158 158 166 164 169 180 207 159 112 109 117 134 138 145 152 161 167 170 170
97 79 76 73 53 53 62 75 81 96 117 112 92 83 80 98 120 127 148 158 158 159 159 154 159 164 160 143 138 153 157 101 93 110 132 139 142 149 156 167 174 173 173
99 88 79 79 70 54 49 43 65 77 82 78 89 69 80 79 86 105 116 134 141 141 136 137 138 128 123 107 113 115 108 93 97 108 135 139 145 153 159 166 174 174 177
99 90 88 84 78 68 52 23 51 52 51 68 79 77 66 83 73 92 96 114 118 123 131 122 114 113 106 95 92 97 84 91 106 115 130 141 145 155 163 167 172 180 183
113 101 99 98 93 80 71 43 40 50 50 56 69 74 64 76 77 84 110 105 106 123 122 121 125 122 119 117 105 92 96 103 107 121 132 147 152 165 175 178 177 176 176
107 100 103 106 99 89 75 51 55 45 71 68 77 79 65 67 72 80 97 98 101 115 116 118 116 118 132 125 122 126 113 96 104 110 134 148 164 177 184 185 185 182 181
108 107 105 105 106 103 87 57 29 37 58 63 73 79 76 71 68 70 81 83 90 111 114 117 114 114 116 115 132 143 119 109 108 127 134 158 164 170 184 188 190 184 188
113 112 102 89 105 112 116 105 83 62 53 57 67 69 69 64 65 74 85 84 99 102 103 112 106 119 129 124 139 144 127 124 137 150 149 159 160 163 162 172 179 182 187
121 117 116 110 107 123 124 118 98 87 78 75 75 71 67 58 60 61 96 92 91 98 98 102 116 125 136 143 152 116 100 105 138 128 152 140 165 169 165 162 171 176 177
127 126 123 124 120 128 124 129 122 114 99 90 85 76 73 64 65 67 70 95 90 100 103 114 115 134 140 127 103 83 92 122 132 107 96 103 112 125 134 143 158 161 156
138 136 133 134 139 149 131 125 119 111 104 102 89 96 90 78 72 78 77 72 78 104 100 95 108 133 160 149 131 123 127 115 29 137 128 122 101 100 116 127 119 111 104
150 151 154 150 146 152 149 153 130 117 95 85 97 100 93 89 86 75 81 64 61 79 105 120 134 132 164 190 177 149 148 163 133 88 90 91 85 79 107 122 123 121 120
157 155 146 144 147 152 166 172 157 142 126 125 127 121 123 117 102 96 99 80 72 65 102 187 137 231 193 234 223 197 174 155 154 135 66 92 104 84 84 106 119 120 122
159 155 148 142 148 154 173 164 166 138 124 128 130 133 130 132 128 116 118 118 96 91 114 26 82 316 330 315 304 266 217 208 171 154 157 122 85 80 105 113 112 121 130
163 158 151 149 152 157 172 172 160 143 123 126 129 138 149 121 105 100 95 87 82 85 92 74 88 76 17 352 334 303 255 225 185 154 148 145 122 70 98 103 124 126 118